• In Romania
  • List of Countries
  • For 7 days
  • Water Temperature
  • Satellite Maps
  • Weather Map
  • Weather Widgets
  • user-avatar
    Login

    Hourly Weather Hajfong

    Today, 27 May, Sunday

    Time Temperature Precipitation Wind Pressure Humidity
    00:00 +30°C° 0.6 mm 3 mps 754 mmHg 83%
    01:00 +30°C° 0 mm 3 mps 754 mmHg 84%
    02:00 +30°C° 0.1 mm 3 mps 754 mmHg 85%
    03:00 +29°C° 0.1 mm 3 mps 754 mmHg 85%
    04:00 +29°C° 0.1 mm 3 mps 753 mmHg 86%
    05:00 +30°C° 0.3 mm 3 mps 754 mmHg 83%
    06:00 +31°C° 0.3 mm 3 mps 754 mmHg 81%
    07:00 +31°C° 0.3 mm 3 mps 755 mmHg 78%
    08:00 +33°C° 0.2 mm 3 mps 755 mmHg 72%
    09:00 +35°C° 0.2 mm 3 mps 755 mmHg 65%
    10:00 +36°C° 0.2 mm 3 mps 755 mmHg 58%
    11:00 +37°C° 0.3 mm 3 mps 755 mmHg 57%
    12:00 +37°C° 0.3 mm 4 mps 755 mmHg 56%
    13:00 +37°C° 0.3 mm 4 mps 755 mmHg 55%
    14:00 +37°C° 0.1 mm 4 mps 754 mmHg 57%
    15:00 +36°C° 0.1 mm 3 mps 754 mmHg 60%
    16:00 +35°C° 0.1 mm 3 mps 753 mmHg 62%
    17:00 +34°C° 0.2 mm 3 mps 754 mmHg 67%
    18:00 +32°C° 0.2 mm 2 mps 754 mmHg 71%
    19:00 +31°C° 0.2 mm 2 mps 754 mmHg 76%
    20:00 +30°C° 0.2 mm 2 mps 755 mmHg 77%
    21:00 +30°C° 0.2 mm 2 mps 755 mmHg 79%
    22:00 +30°C° 0.2 mm 1 mps 756 mmHg 81%
    23:00 +29°C° 0.2 mm 1 mps 756 mmHg 82%

    Tomorrow, 28 May, Monday

    Time Temperature Precipitation Wind Pressure Humidity
    00:00 +29°C° 0.2 mm 2 mps 756 mmHg 82%
    01:00 +29°C° 0.2 mm 2 mps 755 mmHg 83%
    02:00 +29°C° 0.3 mm 2 mps 755 mmHg 83%
    03:00 +28°C° 0.3 mm 2 mps 755 mmHg 83%
    04:00 +28°C° 0.3 mm 2 mps 755 mmHg 84%
    05:00 +28°C° 0.4 mm 2 mps 755 mmHg 82%
    06:00 +29°C° 0.4 mm 2 mps 756 mmHg 79%
    07:00 +29°C° 0.4 mm 2 mps 756 mmHg 77%
    08:00 +31°C° 0.1 mm 2 mps 756 mmHg 71%
    09:00 +32°C° 0.1 mm 2 mps 757 mmHg 65%
    10:00 +35°C° 0.1 mm 2 mps 757 mmHg 59%
    11:00 +35°C° 0.2 mm 3 mps 756 mmHg 58%
    12:00 +35°C° 0.2 mm 3 mps 756 mmHg 58%
    13:00 +36°C° 0.2 mm 4 mps 755 mmHg 57%
    14:00 +35°C° 0.4 mm 4 mps 755 mmHg 59%
    15:00 +35°C° 0.4 mm 4 mps 754 mmHg 60%
    16:00 +35°C° 0.4 mm 4 mps 754 mmHg 62%
    17:00 +34°C° 0.2 mm 3 mps 754 mmHg 67%
    18:00 +31°C° 0.2 mm 3 mps 754 mmHg 72%
    19:00 +30°C° 0.2 mm 2 mps 755 mmHg 77%
    20:00 +30°C° 0.1 mm 2 mps 755 mmHg 79%
    21:00 +30°C° 0.1 mm 2 mps 755 mmHg 81%
    22:00 +30°C° 0.1 mm 2 mps 756 mmHg 83%
    23:00 +30°C° 0.1 mm 2 mps 755 mmHg 84%

    Day after tomorrow, 29 May, Tuesday

    Time Temperature Precipitation Wind Pressure Humidity
    00:00 +29°C° 0.1 mm 2 mps 755 mmHg 85%
    01:00 +29°C° 0.1 mm 2 mps 755 mmHg 86%
    02:00 +29°C° 0.5 mm 2 mps 754 mmHg 87%
    03:00 +29°C° 0.5 mm 2 mps 754 mmHg 88%
    04:00 +29°C° 0.5 mm 2 mps 754 mmHg 89%
    05:00 +29°C° 1.8 mm 2 mps 755 mmHg 88%
    06:00 +30°C° 1.8 mm 2 mps 755 mmHg 86%
    07:00 +30°C° 1.8 mm 2 mps 756 mmHg 85%
    08:00 +33°C° 0.5 mm 3 mps 756 mmHg 78%
    09:00 +34°C° 0.5 mm 3 mps 756 mmHg 72%
    10:00 +35°C° 0.5 mm 4 mps 756 mmHg 65%
    11:00 +36°C° 0.4 mm 4 mps 756 mmHg 63%
    12:00 +36°C° 0.4 mm 4 mps 755 mmHg 60%
    13:00 +37°C° 0.4 mm 5 mps 755 mmHg 58%
    14:00 +36°C° 0.5 mm 5 mps 754 mmHg 60%
    15:00 +36°C° 0.5 mm 5 mps 754 mmHg 62%
    16:00 +35°C° 0.5 mm 5 mps 753 mmHg 63%
    17:00 +34°C° 0 mm 4 mps 753 mmHg 69%
    18:00 +33°C° 0 mm 4 mps 753 mmHg 74%
    19:00 +32°C° 0 mm 4 mps 754 mmHg 79%
    20:00 +31°C° 0.1 mm 3 mps 754 mmHg 82%
    21:00 +30°C° 0.1 mm 3 mps 755 mmHg 84%
    22:00 +30°C° 0.1 mm 3 mps 755 mmHg 87%
    23:00 +30°C° 0.5 mm 3 mps 755 mmHg 88%

    30 May, Wednesday

    Time Temperature Precipitation Wind Pressure Humidity
    00:00 +30°C° 0.5 mm 2 mps 755 mmHg 88%
    01:00 +30°C° 0.5 mm 2 mps 755 mmHg 89%
    02:00 +30°C° 0 mm 2 mps 755 mmHg 90%
    03:00 +29°C° 0 mm 2 mps 754 mmHg 90%
    04:00 +29°C° 0 mm 2 mps 754 mmHg 91%
    05:00 +30°C° 0.4 mm 2 mps 755 mmHg 89%
    06:00 +30°C° 0.4 mm 2 mps 755 mmHg 87%
    07:00 +31°C° 0.4 mm 3 mps 756 mmHg 85%
    08:00 +33°C° 0.6 mm 3 mps 756 mmHg 79%
    09:00 +34°C° 0.6 mm 3 mps 756 mmHg 72%
    10:00 +36°C° 0.6 mm 3 mps 756 mmHg 66%
    11:00 +36°C° 0.2 mm 4 mps 756 mmHg 63%
    12:00 +37°C° 0.2 mm 4 mps 755 mmHg 60%
    13:00 +37°C° 0.2 mm 5 mps 754 mmHg 57%
    14:00 +37°C° 0.1 mm 5 mps 754 mmHg 59%
    15:00 +37°C° 0.1 mm 5 mps 753 mmHg 60%
    16:00 +36°C° 0.1 mm 4 mps 753 mmHg 62%
    17:00 +35°C° 0 mm 4 mps 753 mmHg 69%
    18:00 +33°C° 0 mm 4 mps 754 mmHg 76%
    19:00 +31°C° 0 mm 3 mps 754 mmHg 83%
    20:00 +31°C° 0 mm 3 mps 754 mmHg 86%
    21:00 +30°C° 0 mm 3 mps 755 mmHg 88%
    22:00 +30°C° 0 mm 2 mps 755 mmHg 91%
    23:00 +30°C° 0.3 mm 2 mps 755 mmHg 91%

    31 May, Thursday

    Time Temperature Precipitation Wind Pressure Humidity
    00:00 +30°C° 0.3 mm 2 mps 755 mmHg 92%
    01:00 +29°C° 0.3 mm 2 mps 755 mmHg 93%
    02:00 +29°C° 0.2 mm 2 mps 754 mmHg 93%
    03:00 +29°C° 0.2 mm 2 mps 754 mmHg 93%
    04:00 +29°C° 0.2 mm 2 mps 754 mmHg 93%
    05:00 +30°C° 0.4 mm 2 mps 755 mmHg 90%
    06:00 +30°C° 0.4 mm 3 mps 755 mmHg 88%
    07:00 +31°C° 0.4 mm 3 mps 756 mmHg 85%
    08:00 +33°C° 0 mm 3 mps 756 mmHg 79%
    09:00 +34°C° 0 mm 3 mps 756 mmHg 73%
    10:00 +35°C° 0 mm 3 mps 756 mmHg 67%
    11:00 +36°C° 0 mm 4 mps 756 mmHg 65%
    12:00 +37°C° 0 mm 4 mps 755 mmHg 62%
    13:00 +37°C° 0 mm 4 mps 754 mmHg 60%
    14:00 +37°C° 0 mm 4 mps 754 mmHg 62%
    15:00 +36°C° 0 mm 4 mps 754 mmHg 64%
    16:00 +36°C° 0 mm 4 mps 753 mmHg 66%
    17:00 +35°C° 0 mm 4 mps 753 mmHg 72%
    18:00 +33°C° 0 mm 4 mps 754 mmHg 78%
    19:00 +32°C° 0 mm 4 mps 754 mmHg 84%
    20:00 +31°C° 0 mm 3 mps 754 mmHg 85%
    21:00 +30°C° 0 mm 3 mps 755 mmHg 87%
    22:00 +30°C° 0 mm 3 mps 755 mmHg 89%
    23:00 +30°C° 0.1 mm 2 mps 755 mmHg 90%

    1 June, Friday

    Time Temperature Precipitation Wind Pressure Humidity
    00:00 +30°C° 0.1 mm 2 mps 754 mmHg 92%
    01:00 +29°C° 0.1 mm 2 mps 754 mmHg 93%
    02:00 +29°C° 0.6 mm 2 mps 754 mmHg 93%
    03:00 +29°C° 0.6 mm 2 mps 754 mmHg 93%
    04:00 +29°C° 0.6 mm 2 mps 754 mmHg 93%
    05:00 +30°C° 0.6 mm 2 mps 754 mmHg 90%
    06:00 +30°C° 0.6 mm 3 mps 755 mmHg 87%
    07:00 +31°C° 0.6 mm 3 mps 755 mmHg 84%
    08:00 +33°C° 0.2 mm 3 mps 755 mmHg 78%
    09:00 +34°C° 0.2 mm 3 mps 755 mmHg 72%
    10:00 +36°C° 0.2 mm 3 mps 755 mmHg 67%
    11:00 +36°C° 0 mm 3 mps 755 mmHg 64%
    12:00 +37°C° 0 mm 3 mps 754 mmHg 61%
    13:00 +38°C° 0 mm 4 mps 753 mmHg 59%
    14:00 +37°C° 0 mm 4 mps 753 mmHg 62%
    15:00 +36°C° 0 mm 4 mps 752 mmHg 65%
    16:00 +36°C° 0 mm 4 mps 752 mmHg 69%
    17:00 +34°C° 0 mm 4 mps 752 mmHg 74%
    18:00 +33°C° 0 mm 4 mps 752 mmHg 79%
    19:00 +32°C° 0 mm 4 mps 752 mmHg 85%
    20:00 +32°C° 0 mm 4 mps 753 mmHg 86%
    21:00 +31°C° 0 mm 3 mps 753 mmHg 87%
    22:00 +31°C° 0 mm 3 mps 754 mmHg 88%
    23:00 +30°C° 1.3 mm 3 mps 754 mmHg 88%
    Show more